Crown PT.- Scarborou, Trinidad And Tobago

2:39 AM AST on July 29, 2016 (GMT -0400)
Crown Point

Weather History for TTCP - March, 2014

Change the Weather History Date:

Friday, March 7, 2014

  Actual Average Record
Temperature  
Mean Temperature 78 °F -  
Max Temperature 84 °F 84 °F 87 °F (1998)
Min Temperature 71 °F 74 °F 71 °F (2014)
Cooling Degree Days 12    
Growing Degree Days 28 (Base 50)    
Moisture  
Dew Point 67 °F    
Average Humidity 67    
Maximum Humidity 78    
Minimum Humidity 58    
Precipitation  
Precipitation 0.00 in - - ()
Sea Level Pressure  
Sea Level Pressure 29.98 in    
Wind  
Wind Speed 7 mph ()    
Max Wind Speed 18 mph    
Max Gust Speed -    
Visibility 6.2 miles    
Events      
Averages and records for this station are not official NWS values.
T = Trace of Precipitation, MM = Missing Value Source: Averaged Metar Reports

Daily Weather History Graph

Daily Weather History Graph

Search for Another Location

Airport or City:

Trip Planner

Search our weather history database for the weather conditions in past years. The results will help you decide how hot, cold, wet, or windy it might be!

Date:

Astronomy

Mar. 07, 2014 Rise Set
Actual Time 6:15 AM AST 6:13 PM AST
Civil Twilight 5:53 AM AST 6:34 PM AST
Nautical Twilight 5:29 AM AST 6:59 PM AST
Astronomical Twilight 5:05 AM AST 7:23 PM AST
Moon 11:08 AM AST (3/7) No Moon Set
Length of Visible Light 12h 40m
Length of Day
11h 58m
Waxing Crescent, 41% of the Moon is Illuminated
Mar 7
Waxing Crescent
Mar 8
First Quarter
Mar 16
Full
Mar 23
Last Quarter
Mar 30
New

Hourly Weather History & Observations

Time (AST) Temp. Heat Index Dew Point Humidity Pressure Visibility Wind Dir Wind Speed Gust Speed Precip Events Conditions
12:00 AM 75.2 °F - 66.2 °F 73% 30.01 in 6.2 mi Calm Calm - N/A   Partly Cloudy
1:00 AM 75.2 °F - 64.4 °F 69% 29.98 in 6.2 mi Calm Calm - N/A   Partly Cloudy
2:00 AM 73.4 °F - 64.4 °F 73% 29.98 in 6.2 mi Calm Calm - N/A   Partly Cloudy
6:00 AM 71.6 °F - 64.4 °F 78% 29.98 in 6.2 mi Calm Calm - N/A   Partly Cloudy
7:00 AM 73.4 °F - 64.4 °F 73% 29.98 in 6.2 mi Calm Calm - N/A   Partly Cloudy
8:00 AM 78.8 °F - 69.8 °F 74% 30.01 in 6.2 mi East 12.7 mph - N/A   Partly Cloudy
9:00 AM 82.4 °F 84.6 °F 66.2 °F 58% 30.04 in 6.2 mi East 13.8 mph - N/A   Partly Cloudy
10:00 AM 82.4 °F 84.6 °F 66.2 °F 58% 30.04 in 6.2 mi East 18.4 mph - N/A   Partly Cloudy
11:00 AM 82.4 °F 85.4 °F 68.0 °F 62% 30.01 in 6.2 mi ESE 17.3 mph - N/A   Partly Cloudy
12:00 PM 84.2 °F 87.3 °F 68.0 °F 58% 30.01 in 6.2 mi ESE 18.4 mph - N/A   Partly Cloudy
1:00 PM 84.2 °F 87.3 °F 68.0 °F 58% 29.98 in 6.2 mi ESE 16.1 mph - N/A   Partly Cloudy
2:00 PM 84.2 °F 89.6 °F 71.6 °F 66% 29.95 in 6.2 mi East 16.1 mph - N/A   Partly Cloudy
3:00 PM 84.2 °F 87.3 °F 68.0 °F 58% 29.95 in 6.2 mi SE 16.1 mph - N/A   Partly Cloudy
4:00 PM 82.4 °F 85.4 °F 68.0 °F 62% 29.92 in 6.2 mi ESE 15.0 mph - N/A   Partly Cloudy
5:00 PM 82.4 °F 85.4 °F 68.0 °F 62% 29.92 in 6.2 mi ESE 16.1 mph - N/A   Partly Cloudy
6:00 PM 78.8 °F - 66.2 °F 65% 29.95 in 5.6 mi ESE 12.7 mph - N/A   Partly Cloudy
7:00 PM 78.8 °F - 68.0 °F 69% 29.95 in 6.2 mi ESE 13.8 mph - N/A   Partly Cloudy
8:00 PM 78.8 °F - 68.0 °F 69% 29.98 in 6.2 mi ESE 11.5 mph - N/A   Partly Cloudy
9:00 PM 77.0 °F - 68.0 °F 74% 29.98 in 6.2 mi East 8.1 mph - N/A   Partly Cloudy
10:00 PM 77.0 °F - 68.0 °F 74% 29.98 in 6.2 mi East 11.5 mph - N/A   Partly Cloudy
11:00 PM 77.0 °F - 68.0 °F 74% 29.98 in 6.2 mi East 11.5 mph - N/A   Partly Cloudy